Hourly Data Report for April 15, 2004

SHERBROOKE A
QUEBEC

45°26'00.000" N
71°41'00.000" W
241.40 m
7028124
71610
YSC

Download Data

Hourly Data (April 2004)
Hourly Data Report for April 15, 2004
TIME
LST
Temp Definition
°C
Dew Point Definition
°C
Rel Hum Definition
%
Precip. Amount Definition
mm

Wind Dir Definition
10's deg

Wind Spd Definition
km/h
Visibility Definition
km
Stn Press Definition
kPa
Hmdx Definition


Wind Chill Definition


Weather Definition


00:00 2.5 0.0 84   34 4 15.0 98.46      
01:00 0.7 -0.8 90   6 4 15.0 98.47      
02:00 -0.1 -1.2 92   30 7 15.0 98.51   -3  
03:00 -0.2 -1.4 92     0 15.0 98.55      
04:00 0.8 -3.2 75   36 7 15.0 98.56      
05:00 0.1 -3.5 77   1 7 15.0 98.67      
06:00 -0.2 -3.4 79   1 6 15.0 98.77   -2  
07:00 2.1 -3.3 67   36 9 24.1 98.84     Clear
08:00 3.3 -2.9 64   33 15 24.1 98.89     Mainly Clear
09:00 3.8 -2.2 65   32 19 24.1 98.94     Mainly Clear
10:00 4.0 -3.8 57   31 15 24.1 99.00     Mainly Clear
11:00 5.3 -4.5 49   32 19 24.1 99.02     Mainly Clear
12:00 6.2 -5.2 44   31 20 24.1 98.99     Mainly Clear
13:00 6.5 -6.4 39   36 22 24.1 99.00     Clear
14:00 6.7 -6.7 38   33 19 24.1 99.05     Clear
15:00 7.0 -7.0 36   34 17 24.1 99.07     Clear
16:00 6.6 -8.0 34   33 20 24.1 99.11     Clear
17:00 6.0 -7.8 36   33 13 15.0 99.21      
18:00 4.7 -8.6 37   32 11 15.0 99.25      
19:00 2.9 -9.0 41   32 11 15.0 99.32      
20:00 2.1 -9.4 42   33 11 15.0 99.41      
21:00 2.0 -10.7 38   33 15 15.0 99.42      
22:00 1.3 -9.1 46   36 7 15.0 99.44      
23:00 0.9 -8.5 49   3 9 15.0 99.46      

Notes on Data Quality.

Legend

  • E = Estimated
  • M = Missing
  • NA = Not Available*
  • [empty] = Indicates an unobserved value
Date modified: